SCP
0 0 0 0 0 0 0 0 0 0 0 0 0 0 0 0 0 0 0 0 0 0 -0 0 0 0 0 0 0 0 0 0 0 0 0 0 0 0 0 0 0 0 0 0
0 0 0 0 0 0 0 0 0 0 0 0 0 0 0 0 0 0 0 0 0 0 0 0 0 0 0 0 0 0 0 0 0 0 0 0 0 0 0 0 0 0 0 0
0 0 0 0 0 0 0 0 0 0 0 0 0 0 0 0 0 0 0 0 0 0 0 0 0 0 0 0 0 0 0 0 0 0 0 0 0 0 -0 0 0 0 0 0
0 0 0 0 0 0 0 0 0 0 0 0 0 0 0 0 0 0 0 0 0 0 0 0 0 0 0 0 0 0 0 0 0 0 0 0 0 0 0 0 0 0 0 0
0 0 0 0 0 0 0 0 0 0 0 0 0 0 0 0 0 0 0 0 0 0 0 0 0 0 0 0 0 0 0 0 0 0 0 0 0 0 0 0 0 0 0 0
0 0 0 0 0 0 0 0 0 0 0 0 0 0 0 0 0 0 0 0 0 0 0 0 0 0 0 0 0 0 0 0 0 0 0 0 0 0 0 0 0 0 0 0
0 0 0 0 0 0 0 0 0 0 0 0 0 0 0 0 0 0 0 0 0 0 0 0 0 0 0 0 0 0 0 0 0 0 0 0 0 -0 0 0 0 0 0 0
0 0 0 0 0 0 0 0 0 0 0 0 0 0 0 0 0 0 0 0 0 0 0 0 0 0 0 0 0 0 0 0 0 0 0 0 0 0 0 0 0 0 0 0
0 0 0 0 0 0 0 0 0 0 0 0 0 0 0 0 0 0 0 0 0 0 0 0 0 0 0 0 0 0 0 0 0 0 0 0 0 0 0 0 0 0 0 0
0 0 0 0 0 0 0 0 0 0 0 0 0 0 0 0 0 0 0 0 0 0 0 0 0 0 0 0 0 0 0 0 0 0 0 0 0 0 0 0 0 0 0 0
0 0 0 0 0 0 0 0 0 0 0 0 0 0 0 0 0 0 0 0 0 0 0 0 0 0 0 0 0 0 0 0 0 0 0 0 0 0 0 1 0 0 0 0
0 0 0 0 0 0 0 0 0 0 0 0 0 0 0 0 0 0 0 0 0 0 0 0 0 0 0 0 0 0 0 0 0 0 0 0 0 0 0 0 0 0 0 0
0 0 0 0 0 0 0 0 0 0 0 0 0 0 0 0 0 0 0 0 0 0 0 0 0 0 0 0 0 0 0 0 0 0 0 0 0 0 0 0 0 0 0 0
0 0 0 0 0 0 0 0 0 0 0 0 0 0 0 0 0 0 0 0 0 0 0 0 0 0 0 0 0 0 0 0 0 0 0 0 0 0 0 0 0 0 0 0
0 0 0 0 0 0 0 0 0 0 0 0 0 0 0 0 0 0 0 0 0 0 0 0 0 0 0 0 0 0 0 0 0 0 0 0 0 0 0 0 0 0 0 0
0 0 0 0 0 0 0 0 0 0 0 0 0 0 0 0 0 0 0 0 0 0 0 0 0 0 0 0 0 0 0 0 0 0 0 0 0 0 0 0 0 0 0 0
0 0 0 0 0 0 0 0 0 0 0 0 0 0 0 0 0 0 0 0 0 0 0 0 0 0 0 0 0 0 0 0 0 0 0 0 0 0 0 0 0 0 0 0
0 0 0 0 0 0 0 0 0 0 0 0 0 0 0 0 0 0 0 0 0 0 0 0 0 0 0 0 0 0 0 0 0 0 0 0 0 0 0 0 0 0 0 0
0 0 0 0 0 0 0 0 0 0 0 0 0 0 0 0 0 0 0 0 0 0 0 0 0 0 0 0 0 0 0 0 0 0 0 0 0 0 0 0 0 0 0 0
0 0 0 0 0 0 0 0 0 0 0 0 0 0 0 0 0 0 0 0 0 0 0 0 0 0 0 0 0 0 0 0 0 0 0 0 0 0 0 0 0 0 0 0
0 0 0 0 0 0 0 0 0 0 0 0 0 0 0 0 0 0 0 0 0 0 0 0 0 0 0 0 0 0 0 0 0 0 0 0 0 0 0 0 0 0 0 0
0 0 0 0 0 0 0 0 0 0 0 0 0 0 0 0 0 0 0 0 0 0 0 0 0 0 0 0 0 0 0 0 0 0 0 0 0 0 0 0 0 0 0 0
0 0 0 0 0 0 0 0 0 0 0 0 0 0 0 0 0 0 0 0 0 0 0 0 0 0 0 0 0 0 0 0 0 0 0 0 0 0 0 0 0 0 0 0
0 0 0 0 0 0 0 0 0 0 0 0 0 0 0 0 0 0 0 0 0 0 0 0 0 0 0 0 0 0 0 0 0 0 0 0 0 0 0 0 0 0 0 0
0 0 0 0 0 0 0 0 0 0 0 0 0 0 0 0 0 0 0 0 0 0 0 0 0 0 0 0 0 0 0 0 0 0 0 0 0 0 0 0 0 0 0 0
0 0 0 0 0 0 0 0 0 0 0 0 0 0 0 0 0 0 0 0 0 0 0 0 0 0 0 0 0 0 0 0 0 0 0 0 0 0 0 0 0 0 0 0
0 0 0 0 0 0 0 0 0 0 0 0 0 0 0 0 0 0 0 0 -0 0 0 0 0 0 0 0 0 0 0 0 0 -0 -0 -0 -0 -0 -0 -0 0 0 0 0
Wind_Speed_500mb
31 31 29 29 29 28 14 18 13 15 23 24 29 23 37 38 13 12 20 23 27 29 31 26 26 24 9 23 7 8 17 6 16 23 10 10 9 14 26 9 10 14 13 19
30 28 28 25 24 25 29 15 33 17 22 21 22 35 42 25 15 29 18 24 23 20 23 22 19 20 13 12 13 4 12 6 14 25 19 13 10 16 22 15 9 19 19 20
30 27 26 23 20 18 20 13 10 26 23 38 35 31 34 24 25 28 28 21 25 24 22 23 8 24 12 9 10 14 10 11 18 22 5 14 16 20 21 9 11 21 25 33
32 29 26 24 19 18 13 13 16 15 10 26 32 31 33 28 28 21 23 17 27 17 18 29 18 29 21 9 9 2 4 17 25 30 36 31 26 27 29 31 29 28 30 35
38 31 28 25 21 18 19 14 19 30 38 24 18 28 27 28 24 20 29 21 29 26 21 24 22 15 18 16 19 14 12 10 21 30 35 38 37 35 42 36 34 40 40 39
37 34 31 28 25 21 13 21 29 20 27 22 19 21 25 31 27 7 15 24 26 27 8 19 16 16 14 17 4 17 15 11 15 28 32 38 32 33 35 30 28 31 31 32
46 42 34 31 31 31 29 14 22 23 19 25 22 31 33 31 27 17 13 9 21 14 11 9 12 13 10 11 10 2 10 12 13 23 27 36 31 36 28 25 22 23 31 27
52 46 43 35 36 34 37 27 19 26 21 38 32 32 26 26 9 5 17 2 8 16 9 8 10 13 17 23 22 18 15 12 17 22 27 35 39 29 13 17 20 23 19 20
55 49 45 38 37 37 37 34 19 27 28 27 31 34 25 17 14 14 29 7 6 7 10 13 24 21 24 17 32 28 19 10 12 22 32 35 27 33 5 10 16 22 21 14
59 54 46 41 37 39 37 23 26 22 30 48 27 13 14 25 29 16 34 24 8 8 13 19 23 25 31 31 30 19 18 12 21 22 28 27 26 11 12 14 9 14 12 13
66 61 50 45 37 40 39 32 21 22 32 45 20 17 16 25 13 16 20 15 13 13 15 19 21 22 25 26 27 27 19 21 21 21 28 36 32 17 11 16 10 9 10 15
70 63 52 49 42 42 39 36 21 24 26 18 13 8 7 2 9 17 7 6 3 3 9 13 12 19 20 22 24 19 22 20 18 21 14 5 13 2 3 9 18 24 25 29
72 64 55 47 46 47 45 43 18 18 28 41 39 24 23 17 10 6 8 6 9 6 8 13 8 11 10 16 18 18 23 22 17 18 21 29 23 23 23 22 26 24 26 15
67 68 53 55 50 49 48 49 13 21 23 26 23 24 21 11 13 12 11 7 7 10 14 19 11 15 18 17 23 22 25 28 19 25 26 27 22 21 24 25 24 27 20 24
67 62 51 56 52 49 47 48 21 24 17 11 23 20 24 11 13 12 13 12 10 18 21 15 16 30 25 30 25 24 26 20 20 22 31 24 26 27 29 31 27 27 27 27
69 58 52 53 51 47 38 31 38 41 19 11 8 6 19 17 14 15 16 16 14 21 27 24 31 32 10 13 22 30 25 25 27 25 25 28 31 33 31 31 34 34 33 28
57 66 60 58 52 52 42 18 21 37 27 9 9 11 20 17 15 15 16 15 19 20 30 37 38 36 12 19 26 36 41 45 47 40 38 35 34 35 31 28 29 26 28 34
60 60 64 71 51 38 31 14 32 41 25 11 8 3 12 20 19 20 20 17 17 18 24 24 25 33 30 16 27 33 32 23 22 27 29 31 32 34 34 32 30 33 38 41
76 67 69 56 41 32 24 22 31 36 13 14 15 12 2 12 20 16 14 12 9 16 19 31 20 19 17 17 37 37 24 17 27 33 35 36 38 40 40 39 40 43 44 43
89 85 33 15 22 30 31 11 6 5 7 9 14 34 7 18 20 16 14 9 8 8 17 28 18 24 47 47 47 44 36 30 24 27 32 36 37 38 39 39 40 42 37 39
81 19 12 48 47 18 9 5 5 7 6 15 33 27 13 13 12 8 10 4 7 7 10 10 9 20 33 52 33 21 10 13 20 25 27 29 31 35 38 40 42 45 47 48
32 32 50 30 16 9 11 10 14 14 13 22 38 37 27 12 8 5 10 6 5 9 12 6 7 6 17 14 10 4 12 17 22 26 31 34 39 43 46 48 52 54 58 58
55 20 10 13 11 11 14 19 10 11 24 30 32 20 22 14 8 9 7 8 10 2 5 8 13 18 14 7 3 6 13 21 30 37 42 47 52 55 57 58 57 55 49 51
10 11 11 10 12 15 12 21 19 23 32 40 46 25 7 12 12 8 8 10 4 7 11 21 9 18 12 3 6 15 30 36 40 47 52 56 58 58 57 57 57 53 53 57
8 8 8 16 13 22 19 36 36 35 47 45 39 21 14 9 6 6 6 8 7 8 12 12 21 6 5 13 20 30 37 40 43 48 57 64 67 69 71 68 70 67 59 59
4 5 5 26 28 24 28 35 41 48 47 46 31 8 8 6 6 8 11 7 9 4 4 14 22 25 21 24 29 33 40 44 51 56 59 60 60 58 60 59 54 54 60 56
7 1 19 25 32 35 36 38 39 46 36 14 9 8 11 8 6 9 10 17 16 21 22 25 28 27 29 35 40 46 49 49 53 63 57 57 57 59 60 66 67 63 63 61
Wind_Direction_500mb
274 281 286 296 308 316 317 290 269 175 185 210 224 232 239 267 286 192 257 284 292 279 245 204 220 221 333 166 167 216 246 293 269 261 56 20 312 322 316 302 290 327 318 298
266 272 278 289 305 324 337 285 262 218 210 232 232 228 250 246 240 258 236 249 261 301 287 280 207 122 74 113 181 24 0 223 255 273 243 209 271 286 262 268 303 286 294 291
262 264 267 273 288 306 326 288 258 225 215 240 269 294 231 233 220 263 260 259 250 246 271 276 258 127 116 106 55 77 12 285 273 275 70 253 253 231 261 244 261 276 272 288
258 259 257 259 266 283 309 248 258 323 238 221 240 258 277 212 221 215 255 254 268 246 231 257 221 265 118 127 95 68 222 248 260 271 284 287 285 288 280 274 264 257 260 262
249 253 250 246 247 260 271 280 339 332 293 298 287 239 252 276 241 193 223 221 251 242 255 251 267 240 191 190 161 217 179 262 280 283 287 290 288 282 281 271 268 282 283 280
249 246 245 239 234 237 248 275 294 270 290 272 266 263 221 252 257 163 258 319 226 251 268 19 23 23 7 30 35 177 238 242 261 267 277 278 272 271 274 286 278 275 278 291
243 239 243 237 229 227 234 280 330 296 269 264 254 241 254 234 265 230 233 238 295 26 352 322 273 290 298 286 259 227 307 241 260 271 280 270 276 278 298 296 296 309 302 305
235 237 236 240 232 227 238 249 288 286 291 279 277 252 270 254 123 240 278 196 15 340 313 258 246 254 264 259 253 233 197 266 277 274 265 276 274 276 323 331 304 299 312 334
226 234 231 235 232 228 234 239 251 272 279 265 326 313 221 262 225 207 235 103 357 328 273 227 243 235 233 228 225 225 141 176 244 276 282 281 291 316 95 352 277 40 10 349
222 229 229 226 228 227 228 225 229 245 261 272 298 322 339 259 260 260 208 157 209 242 240 250 247 241 247 260 270 175 200 220 235 249 257 264 282 355 19 256 318 30 16 355
218 222 225 222 223 221 225 223 248 233 255 273 290 283 322 328 287 264 94 138 193 214 235 248 249 254 260 263 252 266 216 212 225 229 248 258 29 330 335 21 356 358 347 334
218 221 222 222 222 216 218 227 230 252 239 288 285 293 260 20 10 344 298 12 310 330 260 227 262 262 262 266 266 259 262 267 284 288 307 113 328 333 8 325 313 311 307 305
211 215 217 223 216 212 210 214 250 243 243 266 258 252 240 230 248 293 309 165 16 73 360 329 310 284 297 279 283 265 272 278 272 268 272 291 294 306 303 287 284 285 288 309
210 215 215 218 214 209 203 210 224 234 250 249 260 182 191 205 213 242 249 277 335 293 307 297 284 291 303 281 292 294 295 320 304 300 288 308 302 339 337 327 304 291 280 270
205 206 217 208 203 202 204 202 228 214 241 308 257 185 198 206 214 222 225 233 252 258 263 250 257 264 274 276 282 276 278 282 284 283 331 321 312 318 309 308 303 287 293 293
202 210 210 200 193 191 188 216 239 210 224 278 230 109 165 189 208 214 220 220 237 240 251 256 259 260 257 265 263 277 295 310 320 295 292 298 297 295 293 295 289 283 282 288
204 203 206 183 182 177 189 219 171 185 201 241 264 202 187 191 196 206 214 218 231 239 251 247 259 264 229 254 264 282 287 287 289 294 293 280 279 285 286 283 288 286 285 283
197 204 188 169 173 181 204 214 178 184 173 214 259 119 209 197 207 214 207 218 226 236 240 262 245 249 243 256 257 264 267 280 285 291 287 289 286 282 281 275 272 273 280 283
194 174 152 159 171 194 177 178 173 170 185 194 233 206 318 185 222 200 175 222 240 253 245 242 248 238 234 235 242 255 259 273 289 294 292 290 290 288 283 281 282 281 278 274
157 150 147 151 133 130 141 98 131 176 263 230 249 217 164 231 207 181 179 191 227 252 239 248 241 252 258 257 260 263 276 294 306 298 297 297 298 297 298 294 290 291 300 302
138 136 133 145 135 120 104 121 165 210 235 220 218 216 185 214 211 165 185 245 204 244 228 222 250 246 246 241 245 246 270 293 291 288 287 289 291 292 292 290 289 291 293 297
138 141 131 116 119 149 179 186 187 202 215 187 199 200 186 172 125 140 211 231 250 255 126 224 247 245 104 127 146 235 279 282 282 281 283 289 293 294 296 296 297 298 298 298
126 115 131 157 173 182 192 183 177 200 175 161 153 140 152 136 157 223 210 207 240 296 217 243 256 131 138 147 211 292 297 297 297 295 294 294 293 291 291 294 294 295 297 297
114 141 147 200 185 206 207 183 151 131 146 159 155 141 144 150 185 201 207 221 286 240 247 250 44 88 93 106 289 304 303 301 300 300 300 300 301 301 298 298 302 299 297 296
130 145 188 203 154 138 112 119 127 137 144 144 146 161 148 162 191 231 239 156 236 232 245 81 98 68 329 310 310 306 309 312 311 306 301 294 292 292 292 291 292 287 288 295
350 231 195 135 129 121 125 141 138 139 140 148 167 149 167 147 212 180 200 222 219 222 76 10 31 25 359 334 323 317 311 307 305 301 297 294 292 291 293 291 289 285 289 285
348 307 127 133 137 136 133 139 138 144 144 164 124 193 161 193 205 211 199 223 275 346 4 1 9 0 337 323 315 311 307 305 299 302 303 298 293 289 287 284 284 286 289 293
Wind_Speed_850mb
31 31 29 29 29 28 14 18 13 15 23 24 29 23 37 38 13 12 20 23 27 29 31 26 26 24 9 23 7 8 17 6 16 23 10 10 9 14 26 9 10 14 13 19
30 28 28 25 24 25 29 15 33 17 22 21 22 35 42 25 15 29 18 24 23 20 23 22 19 20 13 12 13 4 12 6 14 25 19 13 10 16 22 15 9 19 19 20
30 27 26 23 20 18 20 13 10 26 23 38 35 31 34 24 25 28 28 21 25 24 22 23 8 24 12 9 10 14 10 11 18 22 5 14 16 20 21 9 11 21 25 33
32 29 26 24 19 18 13 13 16 15 10 26 32 31 33 28 28 21 23 17 27 17 18 29 18 29 21 9 9 2 4 17 25 30 36 31 26 27 29 31 29 28 30 35
38 31 28 25 21 18 19 14 19 30 38 24 18 28 27 28 24 20 29 21 29 26 21 24 22 15 18 16 19 14 12 10 21 30 35 38 37 35 42 36 34 40 40 39
37 34 31 28 25 21 13 21 29 20 27 22 19 21 25 31 27 7 15 24 26 27 8 19 16 16 14 17 4 17 15 11 15 28 32 38 32 33 35 30 28 31 31 32
46 42 34 31 31 31 29 14 22 23 19 25 22 31 33 31 27 17 13 9 21 14 11 9 12 13 10 11 10 2 10 12 13 23 27 36 31 36 28 25 22 23 31 27
52 46 43 35 36 34 37 27 19 26 21 38 32 32 26 26 9 5 17 2 8 16 9 8 10 13 17 23 22 18 15 12 17 22 27 35 39 29 13 17 20 23 19 20
55 49 45 38 37 37 37 34 19 27 28 27 31 34 25 17 14 14 29 7 6 7 10 13 24 21 24 17 32 28 19 10 12 22 32 35 27 33 5 10 16 22 21 14
59 54 46 41 37 39 37 23 26 22 30 48 27 13 14 25 29 16 34 24 8 8 13 19 23 25 31 31 30 19 18 12 21 22 28 27 26 11 12 14 9 14 12 13
66 61 50 45 37 40 39 32 21 22 32 45 20 17 16 25 13 16 20 15 13 13 15 19 21 22 25 26 27 27 19 21 21 21 28 36 32 17 11 16 10 9 10 15
70 63 52 49 42 42 39 36 21 24 26 18 13 8 7 2 9 17 7 6 3 3 9 13 12 19 20 22 24 19 22 20 18 21 14 5 13 2 3 9 18 24 25 29
72 64 55 47 46 47 45 43 18 18 28 41 39 24 23 17 10 6 8 6 9 6 8 13 8 11 10 16 18 18 23 22 17 18 21 29 23 23 23 22 26 24 26 15
67 68 53 55 50 49 48 49 13 21 23 26 23 24 21 11 13 12 11 7 7 10 14 19 11 15 18 17 23 22 25 28 19 25 26 27 22 21 24 25 24 27 20 24
67 62 51 56 52 49 47 48 21 24 17 11 23 20 24 11 13 12 13 12 10 18 21 15 16 30 25 30 25 24 26 20 20 22 31 24 26 27 29 31 27 27 27 27
69 58 52 53 51 47 38 31 38 41 19 11 8 6 19 17 14 15 16 16 14 21 27 24 31 32 10 13 22 30 25 25 27 25 25 28 31 33 31 31 34 34 33 28
57 66 60 58 52 52 42 18 21 37 27 9 9 11 20 17 15 15 16 15 19 20 30 37 38 36 12 19 26 36 41 45 47 40 38 35 34 35 31 28 29 26 28 34
60 60 64 71 51 38 31 14 32 41 25 11 8 3 12 20 19 20 20 17 17 18 24 24 25 33 30 16 27 33 32 23 22 27 29 31 32 34 34 32 30 33 38 41
76 67 69 56 41 32 24 22 31 36 13 14 15 12 2 12 20 16 14 12 9 16 19 31 20 19 17 17 37 37 24 17 27 33 35 36 38 40 40 39 40 43 44 43
89 85 33 15 22 30 31 11 6 5 7 9 14 34 7 18 20 16 14 9 8 8 17 28 18 24 47 47 47 44 36 30 24 27 32 36 37 38 39 39 40 42 37 39
81 19 12 48 47 18 9 5 5 7 6 15 33 27 13 13 12 8 10 4 7 7 10 10 9 20 33 52 33 21 10 13 20 25 27 29 31 35 38 40 42 45 47 48
32 32 50 30 16 9 11 10 14 14 13 22 38 37 27 12 8 5 10 6 5 9 12 6 7 6 17 14 10 4 12 17 22 26 31 34 39 43 46 48 52 54 58 58
55 20 10 13 11 11 14 19 10 11 24 30 32 20 22 14 8 9 7 8 10 2 5 8 13 18 14 7 3 6 13 21 30 37 42 47 52 55 57 58 57 55 49 51
10 11 11 10 12 15 12 21 19 23 32 40 46 25 7 12 12 8 8 10 4 7 11 21 9 18 12 3 6 15 30 36 40 47 52 56 58 58 57 57 57 53 53 57
8 8 8 16 13 22 19 36 36 35 47 45 39 21 14 9 6 6 6 8 7 8 12 12 21 6 5 13 20 30 37 40 43 48 57 64 67 69 71 68 70 67 59 59
4 5 5 26 28 24 28 35 41 48 47 46 31 8 8 6 6 8 11 7 9 4 4 14 22 25 21 24 29 33 40 44 51 56 59 60 60 58 60 59 54 54 60 56
7 1 19 25 32 35 36 38 39 46 36 14 9 8 11 8 6 9 10 17 16 21 22 25 28 27 29 35 40 46 49 49 53 63 57 57 57 59 60 66 67 63 63 61
Wind_Direction_850mb
274 281 286 296 308 316 317 290 269 175 185 210 224 232 239 267 286 192 257 284 292 279 245 204 220 221 333 166 167 216 246 293 269 261 56 20 312 322 316 302 290 327 318 298
266 272 278 289 305 324 337 285 262 218 210 232 232 228 250 246 240 258 236 249 261 301 287 280 207 122 74 113 181 24 0 223 255 273 243 209 271 286 262 268 303 286 294 291
262 264 267 273 288 306 326 288 258 225 215 240 269 294 231 233 220 263 260 259 250 246 271 276 258 127 116 106 55 77 12 285 273 275 70 253 253 231 261 244 261 276 272 288
258 259 257 259 266 283 309 248 258 323 238 221 240 258 277 212 221 215 255 254 268 246 231 257 221 265 118 127 95 68 222 248 260 271 284 287 285 288 280 274 264 257 260 262
249 253 250 246 247 260 271 280 339 332 293 298 287 239 252 276 241 193 223 221 251 242 255 251 267 240 191 190 161 217 179 262 280 283 287 290 288 282 281 271 268 282 283 280
249 246 245 239 234 237 248 275 294 270 290 272 266 263 221 252 257 163 258 319 226 251 268 19 23 23 7 30 35 177 238 242 261 267 277 278 272 271 274 286 278 275 278 291
243 239 243 237 229 227 234 280 330 296 269 264 254 241 254 234 265 230 233 238 295 26 352 322 273 290 298 286 259 227 307 241 260 271 280 270 276 278 298 296 296 309 302 305
235 237 236 240 232 227 238 249 288 286 291 279 277 252 270 254 123 240 278 196 15 340 313 258 246 254 264 259 253 233 197 266 277 274 265 276 274 276 323 331 304 299 312 334
226 234 231 235 232 228 234 239 251 272 279 265 326 313 221 262 225 207 235 103 357 328 273 227 243 235 233 228 225 225 141 176 244 276 282 281 291 316 95 352 277 40 10 349
222 229 229 226 228 227 228 225 229 245 261 272 298 322 339 259 260 260 208 157 209 242 240 250 247 241 247 260 270 175 200 220 235 249 257 264 282 355 19 256 318 30 16 355
218 222 225 222 223 221 225 223 248 233 255 273 290 283 322 328 287 264 94 138 193 214 235 248 249 254 260 263 252 266 216 212 225 229 248 258 29 330 335 21 356 358 347 334
218 221 222 222 222 216 218 227 230 252 239 288 285 293 260 20 10 344 298 12 310 330 260 227 262 262 262 266 266 259 262 267 284 288 307 113 328 333 8 325 313 311 307 305
211 215 217 223 216 212 210 214 250 243 243 266 258 252 240 230 248 293 309 165 16 73 360 329 310 284 297 279 283 265 272 278 272 268 272 291 294 306 303 287 284 285 288 309
210 215 215 218 214 209 203 210 224 234 250 249 260 182 191 205 213 242 249 277 335 293 307 297 284 291 303 281 292 294 295 320 304 300 288 308 302 339 337 327 304 291 280 270
205 206 217 208 203 202 204 202 228 214 241 308 257 185 198 206 214 222 225 233 252 258 263 250 257 264 274 276 282 276 278 282 284 283 331 321 312 318 309 308 303 287 293 293
202 210 210 200 193 191 188 216 239 210 224 278 230 109 165 189 208 214 220 220 237 240 251 256 259 260 257 265 263 277 295 310 320 295 292 298 297 295 293 295 289 283 282 288
204 203 206 183 182 177 189 219 171 185 201 241 264 202 187 191 196 206 214 218 231 239 251 247 259 264 229 254 264 282 287 287 289 294 293 280 279 285 286 283 288 286 285 283
197 204 188 169 173 181 204 214 178 184 173 214 259 119 209 197 207 214 207 218 226 236 240 262 245 249 243 256 257 264 267 280 285 291 287 289 286 282 281 275 272 273 280 283
194 174 152 159 171 194 177 178 173 170 185 194 233 206 318 185 222 200 175 222 240 253 245 242 248 238 234 235 242 255 259 273 289 294 292 290 290 288 283 281 282 281 278 274
157 150 147 151 133 130 141 98 131 176 263 230 249 217 164 231 207 181 179 191 227 252 239 248 241 252 258 257 260 263 276 294 306 298 297 297 298 297 298 294 290 291 300 302
138 136 133 145 135 120 104 121 165 210 235 220 218 216 185 214 211 165 185 245 204 244 228 222 250 246 246 241 245 246 270 293 291 288 287 289 291 292 292 290 289 291 293 297
138 141 131 116 119 149 179 186 187 202 215 187 199 200 186 172 125 140 211 231 250 255 126 224 247 245 104 127 146 235 279 282 282 281 283 289 293 294 296 296 297 298 298 298
126 115 131 157 173 182 192 183 177 200 175 161 153 140 152 136 157 223 210 207 240 296 217 243 256 131 138 147 211 292 297 297 297 295 294 294 293 291 291 294 294 295 297 297
114 141 147 200 185 206 207 183 151 131 146 159 155 141 144 150 185 201 207 221 286 240 247 250 44 88 93 106 289 304 303 301 300 300 300 300 301 301 298 298 302 299 297 296
130 145 188 203 154 138 112 119 127 137 144 144 146 161 148 162 191 231 239 156 236 232 245 81 98 68 329 310 310 306 309 312 311 306 301 294 292 292 292 291 292 287 288 295
350 231 195 135 129 121 125 141 138 139 140 148 167 149 167 147 212 180 200 222 219 222 76 10 31 25 359 334 323 317 311 307 305 301 297 294 292 291 293 291 289 285 289 285
348 307 127 133 137 136 133 139 138 144 144 164 124 193 161 193 205 211 199 223 275 346 4 1 9 0 337 323 315 311 307 305 299 302 303 298 293 289 287 284 284 286 289 293